Back to catalog

COSMOS 2325

GLONASS

AliveNavigationMEO
NORAD 23734·PAYLOAD·🇷🇺 Russia

Launched Dec 14, 1995 from Baikonur Cosmodrome

Loading…

Next Passes (next 24 hours)

TLE

FreshSource: Space-Track

Epoch: Sep 13, 2026, 12:13 UTC

1 23734U 95068A   26256.50935167  .00000018  00000-0  00000-0 0  9993
2 23734  65.4751 199.9292 0022143 219.7115 279.0257  2.13102577239271

Track COSMOS 2325 in real time with AllMySat

Download on the App Store